EW2493 Weather Reports


Display with metric or nautical units.
time (UTC)temp
F
wind
direction
speed
MPH
gust
MPH
rain 1hr
in
rain 24hr
in
rain mn
in
humidity
%
barometer
mb
20260503034555 52 306 8.0 10.0 0.00 0.00 0.00 61 1001.2
20260503033058 52 299 7.0 10.0 0.00 0.00 0.00 58 1001.1
20260503031551 54 296 8.0 11.0 0.00 0.00 0.00 55 1001.0
20260503030051 56 308 8.0 10.0 0.00 0.00 0.00 51 1001.0
20260503024553 56 309 7.0 10.0 0.00 0.00 0.00 50 1001.0
20260503023050 57 309 8.0 11.0 0.00 0.00 0.00 48 1000.9
20260503021552 58 317 7.0 11.0 0.00 0.00 0.00 46 1000.6
20260503020048 60 310 8.0 11.0 0.00 0.00 0.00 44 1000.5
20260503014601 62 320 9.0 15.0 0.00 0.00 0.00 39 1000.3
20260503013047 65 315 13.0 17.0 0.00 0.00 0.00 37 1000.2
20260503011556 66 310 12.0 19.0 0.00 0.00 0.00 36 1000.1
20260503010044 68 316 10.0 16.0 0.00 0.00 0.00 35 999.9
20260503004544 70 311 10.0 19.0 0.00 0.00 0.00 34 999.7
20260503003044 72 303 15.0 23.0 0.00 0.00 0.00 32 999.6
20260503001542 72 308 14.0 22.0 0.00 0.00 0.00 31 999.7
20260503000040 72 310 14.0 22.0 0.00 0.00 0.00 32 999.9
20260502234550 72 303 15.0 20.0 0.00 0.00 0.00 31 1000.0
20260502233038 72 304 16.0 20.0 0.00 0.00 0.00 31 1000.0
20260502231537 72 308 12.0 20.0 0.00 0.00 0.00 31 1000.0
20260502230035 73 303 15.0 20.0 0.00 0.00 0.00 31 1000.1
20260502224535 73 306 18.0 26.0 0.00 0.00 0.00 29 1000.0
20260502223034 74 295 19.0 24.0 0.00 0.00 0.00 29 1000.0
20260502221531 73 291 12.0 18.0 0.00 0.00 0.00 30 1000.4
20260502214527 73 306 12.0 19.0 0.00 0.00 0.00 31 1001.0
20260502213037 72 255 8.0 12.0 0.00 0.00 0.00 28 1001.4
20260502211523 73 287 13.0 22.0 0.00 0.00 0.00 27 1001.7
20260502210019 73 268 8.0 16.0 0.00 0.00 0.00 26 1001.9
20260502204518 73 301 10.0 19.0 0.00 0.00 0.00 24 1002.1
20260502203016 75 249 6.0 15.0 0.00 0.00 0.00 24 1002.2
20260502201524 72 355 7.0 15.0 0.00 0.00 0.00 25 1002.6
20260502200010 72 291 6.0 16.0 0.00 0.00 0.00 25 1002.9
20260502194507 71 245 7.0 17.0 0.00 0.00 0.00 26 1003.4
20260502193006 72 301 7.0 20.0 0.00 0.00 0.00 24 1003.6
20260502191502 71 216 9.0 18.0 0.00 0.00 0.00 26 1003.9
20260502190059 70 252 6.0 17.0 0.00 0.00 0.00 26 1004.3
20260502184603 70 204 8.0 20.0 0.00 0.00 0.00 27 1004.5
20260502183056 68 201 7.0 19.0 0.00 0.00 0.00 26 1004.9
20260502181556 68 206 7.0 18.0 0.00 0.00 0.00 23 1005.2
20260502163033 65 230 10.0 20.0 0.00 0.00 0.00 30 1007.3
20260502161532 63 294 9.0 20.0 0.00 0.00 0.00 33 1007.7
20260502151520 61 281 16.0 26.0 0.00 0.00 0.00 39 1008.7
20260502123041 35 176 0.0 2.0 0.00 0.00 0.00 85 1010.2
20260502121539 33 164 0.0 1.0 0.00 0.00 0.00 85 1010.2
20260502120138 32 161 0.0 2.0 0.00 0.00 0.00 85 1010.3
20260502114538 30 205 1.0 4.0 0.00 0.00 0.00 85 1010.2
20260502113043 30 180 2.0 6.0 0.00 0.00 0.00 85 1010.3
20260502111535 30 190 3.0 6.0 0.00 0.00 0.00 85 1010.2
20260502110036 30 187 3.0 6.0 0.00 0.00 0.00 85 1010.3
20260502104534 30 210 2.0 5.0 0.00 0.00 0.00 85 1010.5
20260502103027 29 167 2.0 4.0 0.00 0.00 0.00 85 1010.8
20260502101527 29 160 1.0 3.0 0.00 0.00 0.00 84 1011.0
20260502091516 33 196 1.0 3.0 0.00 0.00 0.00 79 1011.3
20260502064547 36 162 0.0 3.0 0.00 0.00 0.00 72 1012.9
20260502063038 37 231 0.0 2.0 0.00 0.00 0.00 69 1013.0
20260502061537 38 220 0.0 3.0 0.00 0.00 0.00 69 1012.9
20260502060041 38 218 0.0 3.0 0.00 0.00 0.00 68 1013.1
20260502054541 38 145 0.0 3.0 0.00 0.00 0.00 65 1013.2
20260502053026 41 230 0.0 4.0 0.00 0.00 0.00 61 1013.3
20260502051524 42 235 2.0 7.0 0.00 0.00 0.00 59 1013.1
20260502050021 42 204 5.0 8.0 0.00 0.00 0.00 58 1013.1
20260502044519 42 150 2.0 7.0 0.00 0.00 0.00 60 1013.1
20260502043018 42 209 3.0 6.0 0.00 0.00 0.00 60 1013.2
20260502041529 42 184 2.0 7.0 0.00 0.00 0.00 61 1013.3
20260502040037 41 200 1.0 4.0 0.00 0.00 0.00 62 1013.3